Year,Month,Day,Hour,Minute,Value (Times are PST for insolation in W/m^2)
2005,09,03,00,00,0.00
2005,09,03,00,01,0.00
2005,09,03,00,02,0.00
2005,09,03,00,03,0.00
2005,09,03,00,04,0.00
2005,09,03,00,05,0.00
2005,09,03,00,06,0.00
2005,09,03,00,07,0.00
2005,09,03,00,08,0.00
2005,09,03,00,09,0.00
2005,09,03,00,10,0.00
2005,09,03,00,11,0.00
2005,09,03,00,12,0.00
2005,09,03,00,13,0.00
2005,09,03,00,14,0.00
2005,09,03,00,15,0.00
2005,09,03,00,16,0.00
2005,09,03,00,17,0.00
2005,09,03,00,18,0.00
2005,09,03,00,19,0.00
2005,09,03,00,20,0.00
2005,09,03,00,21,0.00
2005,09,03,00,22,0.00
2005,09,03,00,23,0.00
2005,09,03,00,24,0.00
2005,09,03,00,25,0.00
2005,09,03,00,26,0.00
2005,09,03,00,27,0.00
2005,09,03,00,28,0.00
2005,09,03,00,29,0.00
2005,09,03,00,30,0.00
2005,09,03,00,31,0.00
2005,09,03,00,32,0.00
2005,09,03,00,33,0.00
2005,09,03,00,34,0.00
2005,09,03,00,35,0.00
2005,09,03,00,36,0.00
2005,09,03,00,37,0.00
2005,09,03,00,38,0.00
2005,09,03,00,39,0.00
2005,09,03,00,40,0.00
2005,09,03,00,41,0.00
2005,09,03,00,42,0.00
2005,09,03,00,43,0.00
2005,09,03,00,44,0.00
2005,09,03,00,45,0.00
2005,09,03,00,46,0.00
2005,09,03,00,47,0.00
2005,09,03,00,48,0.00
2005,09,03,00,49,0.00
2005,09,03,00,50,0.00
2005,09,03,00,51,0.00
2005,09,03,00,52,0.00
2005,09,03,00,53,0.00
2005,09,03,00,54,0.00
2005,09,03,00,55,0.00
2005,09,03,00,56,0.00
2005,09,03,00,57,0.00
2005,09,03,00,58,0.00
2005,09,03,00,59,0.00
2005,09,03,01,00,0.00
2005,09,03,01,01,0.00
2005,09,03,01,02,0.00
2005,09,03,01,03,0.00
2005,09,03,01,04,0.00
2005,09,03,01,05,0.00
2005,09,03,01,06,0.00
2005,09,03,01,07,0.00
2005,09,03,01,08,0.00
2005,09,03,01,09,0.00
2005,09,03,01,10,0.00
2005,09,03,01,11,0.00
2005,09,03,01,12,0.00
2005,09,03,01,13,0.00
2005,09,03,01,14,0.00
2005,09,03,01,15,0.00
2005,09,03,01,16,0.00
2005,09,03,01,17,0.00
2005,09,03,01,18,0.00
2005,09,03,01,19,0.00
2005,09,03,01,20,0.00
2005,09,03,01,21,0.00
2005,09,03,01,22,0.00
2005,09,03,01,23,0.00
2005,09,03,01,24,0.00
2005,09,03,01,25,0.00
2005,09,03,01,26,0.00
2005,09,03,01,27,0.00
2005,09,03,01,28,0.00
2005,09,03,01,29,0.00
2005,09,03,01,30,0.00
2005,09,03,01,31,0.00
2005,09,03,01,32,0.00
2005,09,03,01,33,0.00
2005,09,03,01,34,0.00
2005,09,03,01,35,0.00
2005,09,03,01,36,0.00
2005,09,03,01,37,0.00
2005,09,03,01,38,0.00
2005,09,03,01,39,0.00
2005,09,03,01,40,0.00
2005,09,03,01,41,0.00
2005,09,03,01,42,0.00
2005,09,03,01,43,0.00
2005,09,03,01,44,0.00
2005,09,03,01,45,0.00
2005,09,03,01,46,0.00
2005,09,03,01,47,0.00
2005,09,03,01,48,0.00
2005,09,03,01,49,0.00
2005,09,03,01,50,0.00
2005,09,03,01,51,0.00
2005,09,03,01,52,0.00
2005,09,03,01,53,0.00
2005,09,03,01,54,0.00
2005,09,03,01,55,0.00
2005,09,03,01,56,0.00
2005,09,03,01,57,0.00
2005,09,03,01,58,0.00
2005,09,03,01,59,0.00
2005,09,03,02,00,0.00
2005,09,03,02,01,0.00
2005,09,03,02,02,0.00
2005,09,03,02,03,0.00
2005,09,03,02,04,0.00
2005,09,03,02,05,0.00
2005,09,03,02,06,0.00
2005,09,03,02,07,0.00
2005,09,03,02,08,0.00
2005,09,03,02,09,0.00
2005,09,03,02,10,0.00
2005,09,03,02,11,0.00
2005,09,03,02,12,0.00
2005,09,03,02,13,0.00
2005,09,03,02,14,0.00
2005,09,03,02,15,0.00
2005,09,03,02,16,0.00
2005,09,03,02,17,0.00
2005,09,03,02,18,0.00
2005,09,03,02,19,0.00
2005,09,03,02,20,0.00
2005,09,03,02,21,0.00
2005,09,03,02,22,0.00
2005,09,03,02,23,0.00
2005,09,03,02,24,0.00
2005,09,03,02,25,0.00
2005,09,03,02,26,0.00
2005,09,03,02,27,0.00
2005,09,03,02,28,0.00
2005,09,03,02,29,0.00
2005,09,03,02,30,0.00
2005,09,03,02,31,0.00
2005,09,03,02,32,0.00
2005,09,03,02,33,0.00
2005,09,03,02,34,0.00
2005,09,03,02,35,0.00
2005,09,03,02,36,0.00
2005,09,03,02,37,0.00
2005,09,03,02,38,0.00
2005,09,03,02,39,0.00
2005,09,03,02,40,0.00
2005,09,03,02,41,0.00
2005,09,03,02,42,0.00
2005,09,03,02,43,0.00
2005,09,03,02,44,0.00
2005,09,03,02,45,0.00
2005,09,03,02,46,0.00
2005,09,03,02,47,0.00
2005,09,03,02,48,0.00
2005,09,03,02,49,0.00
2005,09,03,02,50,0.00
2005,09,03,02,51,0.00
2005,09,03,02,52,0.00
2005,09,03,02,53,0.00
2005,09,03,02,54,0.00
2005,09,03,02,55,0.00
2005,09,03,02,56,0.00
2005,09,03,02,57,0.00
2005,09,03,02,58,0.00
2005,09,03,02,59,0.00
2005,09,03,03,00,0.00
2005,09,03,03,01,0.00
2005,09,03,03,02,0.00
2005,09,03,03,03,0.00
2005,09,03,03,04,0.00
2005,09,03,03,05,0.00
2005,09,03,03,06,0.00
2005,09,03,03,07,0.00
2005,09,03,03,08,0.00
2005,09,03,03,09,0.00
2005,09,03,03,10,0.00
2005,09,03,03,11,0.00
2005,09,03,03,12,0.00
2005,09,03,03,13,0.00
2005,09,03,03,14,0.00
2005,09,03,03,15,0.00
2005,09,03,03,16,0.00
2005,09,03,03,17,0.00
2005,09,03,03,18,0.00
2005,09,03,03,19,0.00
2005,09,03,03,20,0.00
2005,09,03,03,21,0.00
2005,09,03,03,22,0.00
2005,09,03,03,23,0.00
2005,09,03,03,24,0.00
2005,09,03,03,25,0.00
2005,09,03,03,26,0.00
2005,09,03,03,27,0.00
2005,09,03,03,28,0.00
2005,09,03,03,29,0.00
2005,09,03,03,30,0.00
2005,09,03,03,31,0.00
2005,09,03,03,32,0.00
2005,09,03,03,33,0.00
2005,09,03,03,34,0.00
2005,09,03,03,35,0.00
2005,09,03,03,36,0.00
2005,09,03,03,37,0.00
2005,09,03,03,38,0.00
2005,09,03,03,39,0.00
2005,09,03,03,40,0.00
2005,09,03,03,41,0.00
2005,09,03,03,42,0.00
2005,09,03,03,43,0.00
2005,09,03,03,44,0.00
2005,09,03,03,45,0.00
2005,09,03,03,46,0.00
2005,09,03,03,47,0.00
2005,09,03,03,48,0.00
2005,09,03,03,49,0.00
2005,09,03,03,50,0.00
2005,09,03,03,51,0.00
2005,09,03,03,52,0.00
2005,09,03,03,53,0.00
2005,09,03,03,54,0.00
2005,09,03,03,55,0.00
2005,09,03,03,56,0.00
2005,09,03,03,57,0.00
2005,09,03,03,58,0.00
2005,09,03,03,59,0.00
2005,09,03,04,00,0.00
2005,09,03,04,01,0.00
2005,09,03,04,02,0.00
2005,09,03,04,03,0.00
2005,09,03,04,04,0.00
2005,09,03,04,05,0.00
2005,09,03,04,06,0.00
2005,09,03,04,07,0.00
2005,09,03,04,08,0.00
2005,09,03,04,09,0.00
2005,09,03,04,10,0.00
2005,09,03,04,11,0.00
2005,09,03,04,12,0.00
2005,09,03,04,13,0.00
2005,09,03,04,14,0.00
2005,09,03,04,15,0.00
2005,09,03,04,16,0.00
2005,09,03,04,17,0.00
2005,09,03,04,18,0.00
2005,09,03,04,19,0.00
2005,09,03,04,20,0.00
2005,09,03,04,21,0.00
2005,09,03,04,22,0.00
2005,09,03,04,23,0.00
2005,09,03,04,24,0.00
2005,09,03,04,25,0.00
2005,09,03,04,26,0.00
2005,09,03,04,27,0.00
2005,09,03,04,28,0.00
2005,09,03,04,29,0.00
2005,09,03,04,30,0.00
2005,09,03,04,31,0.00
2005,09,03,04,32,0.00
2005,09,03,04,33,0.00
2005,09,03,04,34,0.00
2005,09,03,04,35,0.00
2005,09,03,04,36,0.00
2005,09,03,04,37,0.00
2005,09,03,04,38,0.00
2005,09,03,04,39,0.00
2005,09,03,04,40,0.00
2005,09,03,04,41,0.00
2005,09,03,04,42,0.00
2005,09,03,04,43,0.00
2005,09,03,04,44,0.00
2005,09,03,04,45,0.00
2005,09,03,04,46,0.00
2005,09,03,04,47,0.00
2005,09,03,04,48,0.00
2005,09,03,04,49,0.00
2005,09,03,04,50,0.00
2005,09,03,04,51,0.00
2005,09,03,04,52,0.00
2005,09,03,04,53,0.00
2005,09,03,04,54,0.00
2005,09,03,04,55,0.00
2005,09,03,04,56,0.00
2005,09,03,04,57,0.00
2005,09,03,04,58,0.00
2005,09,03,04,59,0.00
2005,09,03,05,00,0.00
2005,09,03,05,01,0.00
2005,09,03,05,02,0.00
2005,09,03,05,03,0.00
2005,09,03,05,04,0.00
2005,09,03,05,05,0.00
2005,09,03,05,06,0.00
2005,09,03,05,07,0.00
2005,09,03,05,08,0.00
2005,09,03,05,09,0.00
2005,09,03,05,10,0.00
2005,09,03,05,11,0.00
2005,09,03,05,12,0.00
2005,09,03,05,13,0.00
2005,09,03,05,14,0.00
2005,09,03,05,15,0.00
2005,09,03,05,16,0.00
2005,09,03,05,17,0.00
2005,09,03,05,18,0.00
2005,09,03,05,19,0.00
2005,09,03,05,20,0.00
2005,09,03,05,21,0.00
2005,09,03,05,22,0.00
2005,09,03,05,23,0.00
2005,09,03,05,24,0.00
2005,09,03,05,25,0.00
2005,09,03,05,26,0.00
2005,09,03,05,27,0.00
2005,09,03,05,28,0.00
2005,09,03,05,29,0.00
2005,09,03,05,30,0.00
2005,09,03,05,31,0.00
2005,09,03,05,32,0.00
2005,09,03,05,33,0.00
2005,09,03,05,34,0.00
2005,09,03,05,35,0.00
2005,09,03,05,36,0.00
2005,09,03,05,37,0.00
2005,09,03,05,38,0.00
2005,09,03,05,39,0.00
2005,09,03,05,40,0.00
2005,09,03,05,41,0.00
2005,09,03,05,42,0.00
2005,09,03,05,43,0.00
2005,09,03,05,44,0.00
2005,09,03,05,45,0.00
2005,09,03,05,46,0.00
2005,09,03,05,47,0.00
2005,09,03,05,48,0.00
2005,09,03,05,49,0.00
2005,09,03,05,50,0.00
2005,09,03,05,51,0.00
2005,09,03,05,52,0.00
2005,09,03,05,53,0.00
2005,09,03,05,54,0.00
2005,09,03,05,55,0.00
2005,09,03,05,56,0.00
2005,09,03,05,57,0.00
2005,09,03,05,58,0.00
2005,09,03,05,59,0.00
2005,09,03,06,00,0.00
2005,09,03,06,01,0.00
2005,09,03,06,02,0.00
2005,09,03,06,03,0.00
2005,09,03,06,04,0.00
2005,09,03,06,05,0.00
2005,09,03,06,06,0.00
2005,09,03,06,07,0.00
2005,09,03,06,08,0.00
2005,09,03,06,09,0.00
2005,09,03,06,10,0.00
2005,09,03,06,11,0.00
2005,09,03,06,12,0.00
2005,09,03,06,13,0.00
2005,09,03,06,14,0.00
2005,09,03,06,15,0.00
2005,09,03,06,16,0.00
2005,09,03,06,17,0.00
2005,09,03,06,18,0.00
2005,09,03,06,19,0.00
2005,09,03,06,20,0.00
2005,09,03,06,21,0.00
2005,09,03,06,22,0.00
2005,09,03,06,23,0.00
2005,09,03,06,24,0.00
2005,09,03,06,25,0.00
2005,09,03,06,26,0.00
2005,09,03,06,27,0.00
2005,09,03,06,28,0.00
2005,09,03,06,29,0.00
2005,09,03,06,30,0.00
2005,09,03,06,31,0.00
2005,09,03,06,32,0.00
2005,09,03,06,33,0.00
2005,09,03,06,34,0.00
2005,09,03,06,35,0.00
2005,09,03,06,36,0.00
2005,09,03,06,37,0.00
2005,09,03,06,38,0.00
2005,09,03,06,39,0.00
2005,09,03,06,40,0.00
2005,09,03,06,41,0.00
2005,09,03,06,42,0.00
2005,09,03,06,43,0.00
2005,09,03,06,44,0.00
2005,09,03,06,45,0.00
2005,09,03,06,46,0.00
2005,09,03,06,47,0.00
2005,09,03,06,48,0.00
2005,09,03,06,49,0.00
2005,09,03,06,50,0.00
2005,09,03,06,51,0.00
2005,09,03,06,52,0.00
2005,09,03,06,53,0.00
2005,09,03,06,54,0.00
2005,09,03,06,55,0.00
2005,09,03,06,56,0.00
2005,09,03,06,57,0.00
2005,09,03,06,58,4.30
2005,09,03,06,59,0.00
2005,09,03,07,00,0.00
2005,09,03,07,01,0.00
2005,09,03,07,02,0.00
2005,09,03,07,03,0.00
2005,09,03,07,04,0.70
2005,09,03,07,05,5.00
2005,09,03,07,06,5.00
2005,09,03,07,07,5.00
2005,09,03,07,08,6.50
2005,09,03,07,09,7.00
2005,09,03,07,10,9.30
2005,09,03,07,11,11.00
2005,09,03,07,12,11.40
2005,09,03,07,13,13.20
2005,09,03,07,14,14.00
2005,09,03,07,15,15.70
2005,09,03,07,16,15.70
2005,09,03,07,17,14.00
2005,09,03,07,18,13.10
2005,09,03,07,19,11.40
2005,09,03,07,20,11.00
2005,09,03,07,21,11.90
2005,09,03,07,22,12.40
2005,09,03,07,23,14.00
2005,09,03,07,24,15.00
2005,09,03,07,25,16.00
2005,09,03,07,26,17.60
2005,09,03,07,27,18.00
2005,09,03,07,28,17.60
2005,09,03,07,29,16.00
2005,09,03,07,30,16.00
2005,09,03,07,31,16.00
2005,09,03,07,32,16.00
2005,09,03,07,33,16.00
2005,09,03,07,34,16.00
2005,09,03,07,35,16.00
2005,09,03,07,36,15.00
2005,09,03,07,37,14.00
2005,09,03,07,38,14.00
2005,09,03,07,39,14.00
2005,09,03,07,40,13.50
2005,09,03,07,41,12.90
2005,09,03,07,42,14.00
2005,09,03,07,43,14.00
2005,09,03,07,44,14.00
2005,09,03,07,45,14.00
2005,09,03,07,46,14.50
2005,09,03,07,47,16.00
2005,09,03,07,48,16.00
2005,09,03,07,49,18.20
2005,09,03,07,50,20.80
2005,09,03,07,51,23.30
2005,09,03,07,52,25.90
2005,09,03,07,53,28.90
2005,09,03,07,54,32.90
2005,09,03,07,55,38.00
2005,09,03,07,56,39.90
2005,09,03,07,57,42.60
2005,09,03,07,58,46.30
2005,09,03,07,59,48.80
2005,09,03,08,00,52.90
2005,09,03,08,01,57.10
2005,09,03,08,02,60.00
2005,09,03,08,03,62.20
2005,09,03,08,04,63.60
2005,09,03,08,05,66.00
2005,09,03,08,06,67.00
2005,09,03,08,07,68.60
2005,09,03,08,08,71.90
2005,09,03,08,09,76.20
2005,09,03,08,10,77.00
2005,09,03,08,11,77.00
2005,09,03,08,12,81.00
2005,09,03,08,13,83.00
2005,09,03,08,14,89.90
2005,09,03,08,15,94.20
2005,09,03,08,16,100.40
2005,09,03,08,17,108.10
2005,09,03,08,18,115.80
2005,09,03,08,19,124.00
2005,09,03,08,20,128.00
2005,09,03,08,21,128.60
2005,09,03,08,22,121.00
2005,09,03,08,23,114.00
2005,09,03,08,24,94.40
2005,09,03,08,25,73.70
2005,09,03,08,26,72.00
2005,09,03,08,27,70.90
2005,09,03,08,28,67.00
2005,09,03,08,29,73.60
2005,09,03,08,30,82.40
2005,09,03,08,31,87.40
2005,09,03,08,32,88.30
2005,09,03,08,33,91.00
2005,09,03,08,34,95.10
2005,09,03,08,35,101.70
2005,09,03,08,36,107.60
2005,09,03,08,37,113.30
2005,09,03,08,38,122.10
2005,09,03,08,39,127.00
2005,09,03,08,40,130.20
2005,09,03,08,41,128.30
2005,09,03,08,42,123.50
2005,09,03,08,43,120.20
2005,09,03,08,44,117.30
2005,09,03,08,45,111.70
2005,09,03,08,46,102.30
2005,09,03,08,47,93.20
2005,09,03,08,48,87.00
2005,09,03,08,49,81.50
2005,09,03,08,50,80.60
2005,09,03,08,51,77.20
2005,09,03,08,52,71.90
2005,09,03,08,53,69.30
2005,09,03,08,54,67.40
2005,09,03,08,55,66.80
2005,09,03,08,56,64.30
2005,09,03,08,57,62.00
2005,09,03,08,58,66.60
2005,09,03,08,59,77.50
2005,09,03,09,00,65.50
2005,09,03,09,01,62.00
2005,09,03,09,02,62.00
2005,09,03,09,03,63.10
2005,09,03,09,04,67.90
2005,09,03,09,05,71.30
2005,09,03,09,06,79.40
2005,09,03,09,07,81.00
2005,09,03,09,08,77.40
2005,09,03,09,09,75.30
2005,09,03,09,10,91.20
2005,09,03,09,11,98.00
2005,09,03,09,12,98.00
2005,09,03,09,13,101.50
2005,09,03,09,14,125.00
2005,09,03,09,15,125.00
2005,09,03,09,16,125.00
2005,09,03,09,17,125.00
2005,09,03,09,18,386.00
2005,09,03,09,19,415.30
2005,09,03,09,20,417.30
2005,09,03,09,21,419.00
2005,09,03,09,22,421.20
2005,09,03,09,23,423.50
2005,09,03,09,24,427.00
2005,09,03,09,25,431.50
2005,09,03,09,26,435.70
2005,09,03,09,27,441.90
2005,09,03,09,28,446.90
2005,09,03,09,29,448.00
2005,09,03,09,30,449.20
2005,09,03,09,31,463.70
2005,09,03,09,32,466.20
2005,09,03,09,33,470.90
2005,09,03,09,34,481.30
2005,09,03,09,35,484.30
2005,09,03,09,36,486.90
2005,09,03,09,37,486.10
2005,09,03,09,38,483.00
2005,09,03,09,39,483.00
2005,09,03,09,40,487.00
2005,09,03,09,41,489.00
2005,09,03,09,42,490.00
2005,09,03,09,43,490.40
2005,09,03,09,44,492.80
2005,09,03,09,45,495.00
2005,09,03,09,46,496.70
2005,09,03,09,47,498.60
2005,09,03,09,48,497.30
2005,09,03,09,49,500.70
2005,09,03,09,50,507.70
2005,09,03,09,51,510.00
2005,09,03,09,52,511.40
2005,09,03,09,53,512.00
2005,09,03,09,54,515.30
2005,09,03,09,55,517.60
2005,09,03,09,56,519.00
2005,09,03,09,57,519.60
2005,09,03,09,58,521.40
2005,09,03,09,59,525.70
2005,09,03,10,00,527.40
2005,09,03,10,01,529.60
2005,09,03,10,02,532.40
2005,09,03,10,03,534.00
2005,09,03,10,04,535.50
2005,09,03,10,05,537.90
2005,09,03,10,06,540.50
2005,09,03,10,07,543.60
2005,09,03,10,08,546.40
2005,09,03,10,09,548.00
2005,09,03,10,10,548.00
2005,09,03,10,11,548.20
2005,09,03,10,12,552.40
2005,09,03,10,13,554.00
2005,09,03,10,14,557.70
2005,09,03,10,15,562.20
2005,09,03,10,16,566.90
2005,09,03,10,17,570.70
2005,09,03,10,18,579.00
2005,09,03,10,19,583.20
2005,09,03,10,20,586.00
2005,09,03,10,21,592.70
2005,09,03,10,22,597.70
2005,09,03,10,23,600.70
2005,09,03,10,24,598.30
2005,09,03,10,25,596.80
2005,09,03,10,26,596.90
2005,09,03,10,27,596.00
2005,09,03,10,28,597.70
2005,09,03,10,29,596.40
2005,09,03,10,30,599.60
2005,09,03,10,31,601.90
2005,09,03,10,32,600.70
2005,09,03,10,33,599.00
2005,09,03,10,34,599.00
2005,09,03,10,35,605.10
2005,09,03,10,36,607.10
2005,09,03,10,37,614.00
2005,09,03,10,38,620.20
2005,09,03,10,39,623.30
2005,09,03,10,40,630.00
2005,09,03,10,41,633.00
2005,09,03,10,42,631.90
2005,09,03,10,43,629.90
2005,09,03,10,44,626.50
2005,09,03,10,45,620.30
2005,09,03,10,46,617.40
2005,09,03,10,47,621.20
2005,09,03,10,48,622.00
2005,09,03,10,49,622.00
2005,09,03,10,50,623.30
2005,09,03,10,51,627.10
2005,09,03,10,52,629.00
2005,09,03,10,53,631.00
2005,09,03,10,54,631.70
2005,09,03,10,55,635.60
2005,09,03,10,56,638.00
2005,09,03,10,57,638.00
2005,09,03,10,58,638.20
2005,09,03,10,59,640.00
2005,09,03,11,00,640.80
2005,09,03,11,01,644.70
2005,09,03,11,02,648.40
2005,09,03,11,03,649.00
2005,09,03,11,04,650.10
2005,09,03,11,05,652.50
2005,09,03,11,06,654.80
2005,09,03,11,07,656.60
2005,09,03,11,08,659.90
2005,09,03,11,09,662.70
2005,09,03,11,10,661.40
2005,09,03,11,11,664.60
2005,09,03,11,12,666.00
2005,09,03,11,13,667.20
2005,09,03,11,14,668.00
2005,09,03,11,15,668.00
2005,09,03,11,16,671.30
2005,09,03,11,17,673.60
2005,09,03,11,18,675.00
2005,09,03,11,19,677.50
2005,09,03,11,20,679.70
2005,09,03,11,21,681.70
2005,09,03,11,22,682.70
2005,09,03,11,23,686.00
2005,09,03,11,24,686.00
2005,09,03,11,25,690.80
2005,09,03,11,26,694.00
2005,09,03,11,27,698.10
2005,09,03,11,28,705.60
2005,09,03,11,29,709.40
2005,09,03,11,30,714.40
2005,09,03,11,31,721.20
2005,09,03,11,32,734.40
2005,09,03,11,33,756.00
2005,09,03,11,34,780.40
2005,09,03,11,35,814.00
2005,09,03,11,36,861.50
2005,09,03,11,37,881.00
2005,09,03,11,38,710.20
2005,09,03,11,39,670.00
2005,09,03,11,40,670.00
2005,09,03,11,41,589.40
2005,09,03,11,42,467.30
2005,09,03,11,43,474.70
2005,09,03,11,44,565.10
2005,09,03,11,45,517.20
2005,09,03,11,46,544.10
2005,09,03,11,47,580.60
2005,09,03,11,48,588.50
2005,09,03,11,49,624.00
2005,09,03,11,50,571.40
2005,09,03,11,51,607.30
2005,09,03,11,52,663.30
2005,09,03,11,53,630.90
2005,09,03,11,54,588.90
2005,09,03,11,55,594.00
2005,09,03,11,56,594.00
2005,09,03,11,57,658.20
2005,09,03,11,58,1065.00
2005,09,03,11,59,1065.00
2005,09,03,12,00,1065.00
2005,09,03,12,01,654.10
2005,09,03,12,02,426.40
2005,09,03,12,03,448.60
2005,09,03,12,04,509.40
2005,09,03,12,05,561.00
2005,09,03,12,06,555.00
2005,09,03,12,07,465.90
2005,09,03,12,08,438.30
2005,09,03,12,09,448.90
2005,09,03,12,10,470.90
2005,09,03,12,11,492.00
2005,09,03,12,12,492.00
2005,09,03,12,13,633.00
2005,09,03,12,14,677.00
2005,09,03,12,15,677.00
2005,09,03,12,16,586.00
2005,09,03,12,17,403.50
2005,09,03,12,18,409.50
2005,09,03,12,19,424.50
2005,09,03,12,20,448.60
2005,09,03,12,21,443.30
2005,09,03,12,22,439.10
2005,09,03,12,23,437.20
2005,09,03,12,24,434.00
2005,09,03,12,25,411.30
2005,09,03,12,26,387.50
2005,09,03,12,27,383.00
2005,09,03,12,28,385.40
2005,09,03,12,29,388.90
2005,09,03,12,30,387.30
2005,09,03,12,31,382.00
2005,09,03,12,32,376.00
2005,09,03,12,33,374.60
2005,09,03,12,34,372.40
2005,09,03,12,35,378.00
2005,09,03,12,36,386.00
2005,09,03,12,37,393.40
2005,09,03,12,38,422.00
2005,09,03,12,39,422.00
2005,09,03,12,40,449.50
2005,09,03,12,41,434.10
2005,09,03,12,42,429.80
2005,09,03,12,43,439.00
2005,09,03,12,44,422.20
2005,09,03,12,45,360.60
2005,09,03,12,46,394.30
2005,09,03,12,47,414.60
2005,09,03,12,48,422.80
2005,09,03,12,49,457.40
2005,09,03,12,50,459.00
2005,09,03,12,51,558.70
2005,09,03,12,52,758.00
2005,09,03,12,53,758.00
2005,09,03,12,54,564.50
2005,09,03,12,55,460.50
2005,09,03,12,56,466.20
2005,09,03,12,57,531.00
2005,09,03,12,58,531.00
2005,09,03,12,59,531.00
2005,09,03,13,00,531.00
2005,09,03,13,01,575.30
2005,09,03,13,02,971.50
2005,09,03,13,03,939.80
2005,09,03,13,04,916.00
2005,09,03,13,05,925.50
2005,09,03,13,06,921.40
2005,09,03,13,07,909.10
2005,09,03,13,08,942.00
2005,09,03,13,09,942.00
2005,09,03,13,10,696.90
2005,09,03,13,11,513.00
2005,09,03,13,12,513.00
2005,09,03,13,13,513.00
2005,09,03,13,14,513.00
2005,09,03,13,15,513.00
2005,09,03,13,16,513.00
2005,09,03,13,17,513.00
2005,09,03,13,18,820.80
2005,09,03,13,19,898.70
2005,09,03,13,20,872.60
2005,09,03,13,21,821.00
2005,09,03,13,22,821.00
2005,09,03,13,23,927.50
2005,09,03,13,24,960.30
2005,09,03,13,25,906.50
2005,09,03,13,26,666.00
2005,09,03,13,27,666.00
2005,09,03,13,28,666.00
2005,09,03,13,29,666.00
2005,09,03,13,30,845.10
2005,09,03,13,31,810.90
2005,09,03,13,32,468.00
2005,09,03,13,33,468.00
2005,09,03,13,34,468.00
2005,09,03,13,35,468.00
2005,09,03,13,36,469.30
2005,09,03,13,37,496.00
2005,09,03,13,38,496.00
2005,09,03,13,39,496.00
2005,09,03,13,40,496.00
2005,09,03,13,41,496.00
2005,09,03,13,42,506.20
2005,09,03,13,43,603.00
2005,09,03,13,44,603.00
2005,09,03,13,45,603.00
2005,09,03,13,46,603.00
2005,09,03,13,47,603.00
2005,09,03,13,48,631.60
2005,09,03,13,49,946.00
2005,09,03,13,50,946.00
2005,09,03,13,51,813.00
2005,09,03,13,52,661.70
2005,09,03,13,53,650.00
2005,09,03,13,54,788.10
2005,09,03,13,55,695.20
2005,09,03,13,56,396.00
2005,09,03,13,57,396.00
2005,09,03,13,58,771.30
2005,09,03,13,59,884.10
2005,09,03,14,00,871.70
2005,09,03,14,01,813.80
2005,09,03,14,02,791.10
2005,09,03,14,03,778.40
2005,09,03,14,04,772.80
2005,09,03,14,05,768.50
2005,09,03,14,06,765.50
2005,09,03,14,07,762.40
2005,09,03,14,08,761.00
2005,09,03,14,09,759.70
2005,09,03,14,10,759.00
2005,09,03,14,11,758.00
2005,09,03,14,12,757.20
2005,09,03,14,13,753.30
2005,09,03,14,14,752.00
2005,09,03,14,15,751.40
2005,09,03,14,16,751.00
2005,09,03,14,17,749.20
2005,09,03,14,18,749.00
2005,09,03,14,19,749.00
2005,09,03,14,20,748.00
2005,09,03,14,21,748.30
2005,09,03,14,22,750.60
2005,09,03,14,23,752.00
2005,09,03,14,24,752.00
2005,09,03,14,25,752.00
2005,09,03,14,26,754.20
2005,09,03,14,27,756.00
2005,09,03,14,28,758.40
2005,09,03,14,29,761.30
2005,09,03,14,30,766.10
2005,09,03,14,31,770.00
2005,09,03,14,32,770.00
2005,09,03,14,33,770.00
2005,09,03,14,34,770.00
2005,09,03,14,35,800.50
2005,09,03,14,36,625.10
2005,09,03,14,37,210.80
2005,09,03,14,38,233.30
2005,09,03,14,39,249.20
2005,09,03,14,40,288.10
2005,09,03,14,41,292.00
2005,09,03,14,42,292.00
2005,09,03,14,43,292.00
2005,09,03,14,44,292.00
2005,09,03,14,45,584.40
2005,09,03,14,46,694.00
2005,09,03,14,47,264.80
2005,09,03,14,48,269.30
2005,09,03,14,49,256.00
2005,09,03,14,50,266.10
2005,09,03,14,51,285.50
2005,09,03,14,52,288.20
2005,09,03,14,53,288.40
2005,09,03,14,54,290.00
2005,09,03,14,55,290.00
2005,09,03,14,56,292.50
2005,09,03,14,57,298.00
2005,09,03,14,58,351.70
2005,09,03,14,59,357.00
2005,09,03,15,00,357.00
2005,09,03,15,01,357.00
2005,09,03,15,02,300.40
2005,09,03,15,03,284.50
2005,09,03,15,04,298.30
2005,09,03,15,05,385.50
2005,09,03,15,06,320.00
2005,09,03,15,07,320.00
2005,09,03,15,08,307.70
2005,09,03,15,09,282.30
2005,09,03,15,10,274.20
2005,09,03,15,11,277.50
2005,09,03,15,12,290.80
2005,09,03,15,13,304.90
2005,09,03,15,14,334.80
2005,09,03,15,15,343.00
2005,09,03,15,16,342.60
2005,09,03,15,17,348.30
2005,09,03,15,18,383.30
2005,09,03,15,19,397.00
2005,09,03,15,20,397.00
2005,09,03,15,21,397.00
2005,09,03,15,22,315.00
2005,09,03,15,23,319.50
2005,09,03,15,24,297.70
2005,09,03,15,25,261.30
2005,09,03,15,26,270.00
2005,09,03,15,27,271.00
2005,09,03,15,28,271.00
2005,09,03,15,29,272.00
2005,09,03,15,30,290.20
2005,09,03,15,31,308.00
2005,09,03,15,32,308.00
2005,09,03,15,33,345.80
2005,09,03,15,34,447.10
2005,09,03,15,35,846.90
2005,09,03,15,36,807.80
2005,09,03,15,37,736.00
2005,09,03,15,38,766.50
2005,09,03,15,39,784.30
2005,09,03,15,40,748.20
2005,09,03,15,41,734.80
2005,09,03,15,42,727.30
2005,09,03,15,43,728.50
2005,09,03,15,44,731.00
2005,09,03,15,45,306.20
2005,09,03,15,46,285.00
2005,09,03,15,47,285.00
2005,09,03,15,48,285.00
2005,09,03,15,49,566.30
2005,09,03,15,50,707.00
2005,09,03,15,51,707.00
2005,09,03,15,52,702.30
2005,09,03,15,53,687.20
2005,09,03,15,54,686.00
2005,09,03,15,55,682.60
2005,09,03,15,56,664.80
2005,09,03,15,57,603.70
2005,09,03,15,58,284.50
2005,09,03,15,59,301.00
2005,09,03,16,00,523.90
2005,09,03,16,01,694.60
2005,09,03,16,02,699.60
2005,09,03,16,03,702.00
2005,09,03,16,04,708.00
2005,09,03,16,05,708.00
2005,09,03,16,06,708.00
2005,09,03,16,07,507.60
2005,09,03,16,08,402.40
2005,09,03,16,09,343.80
2005,09,03,16,10,135.00
2005,09,03,16,11,135.00
2005,09,03,16,12,150.80
2005,09,03,16,13,178.50
2005,09,03,16,14,239.50
2005,09,03,16,15,266.00
2005,09,03,16,16,235.70
2005,09,03,16,17,240.00
2005,09,03,16,18,257.40
2005,09,03,16,19,262.00
2005,09,03,16,20,262.00
2005,09,03,16,21,262.00
2005,09,03,16,22,262.00
2005,09,03,16,23,262.00
2005,09,03,16,24,262.00
2005,09,03,16,25,632.00
2005,09,03,16,26,719.00
2005,09,03,16,27,646.60
2005,09,03,16,28,415.00
2005,09,03,16,29,390.90
2005,09,03,16,30,369.00
2005,09,03,16,31,369.00
2005,09,03,16,32,352.40
2005,09,03,16,33,199.70
2005,09,03,16,34,206.50
2005,09,03,16,35,193.00
2005,09,03,16,36,193.60
2005,09,03,16,37,195.00
2005,09,03,16,38,188.70
2005,09,03,16,39,152.20
2005,09,03,16,40,159.00
2005,09,03,16,41,167.80
2005,09,03,16,42,193.10
2005,09,03,16,43,188.20
2005,09,03,16,44,202.80
2005,09,03,16,45,202.70
2005,09,03,16,46,195.00
2005,09,03,16,47,195.00
2005,09,03,16,48,195.00
2005,09,03,16,49,502.70
2005,09,03,16,50,503.90
2005,09,03,16,51,501.70
2005,09,03,16,52,467.80
2005,09,03,16,53,488.80
2005,09,03,16,54,491.90
2005,09,03,16,55,529.70
2005,09,03,16,56,534.00
2005,09,03,16,57,527.00
2005,09,03,16,58,504.30
2005,09,03,16,59,496.00
2005,09,03,17,00,496.00
2005,09,03,17,01,182.40
2005,09,03,17,02,141.50
2005,09,03,17,03,151.30
2005,09,03,17,04,148.80
2005,09,03,17,05,131.30
2005,09,03,17,06,130.00
2005,09,03,17,07,163.20
2005,09,03,17,08,213.00
2005,09,03,17,09,384.30
2005,09,03,17,10,447.70
2005,09,03,17,11,458.60
2005,09,03,17,12,457.00
2005,09,03,17,13,454.30
2005,09,03,17,14,410.00
2005,09,03,17,15,342.30
2005,09,03,17,16,362.10